Location: Burgwalden
(48.2830°N, 10.7576°E)
Time: 03:06:28
(UTC+00:00)

Meteor 1-10 Rocket - Pass Details

Date: 26 September 2023
Orbit: 836 x 909 km, 81.3° (Epoch: 04 December)

Event Time Altitude Azimuth Distance (km) Brightness Sun altitude
Rises 04:24:28 0° 199° (SSW) 3,407 7.1 -8.2°
Reaches altitude 10° 04:26:55 10° 202° (SSW) 2,467 6.4 -7.7°
Maximum altitude 04:32:28 65° 284° (WNW) 923 4.2 -6.8°
Drops below altitude 10° 04:38:00 10° 7° (N) 2,461 6.8 -5.9°
Sets 04:40:27 0° 10° (N) 3,399 7.5 -5.5°
